sat.trackr.live / text

‹ back to catalog

STARLINK-2536

NORAD 48310 · 2021-036AL

PAYLOAD ACTIVE UNKNOWN

§ Identity

Operator
Country
US
Launch date
2021-04-29
Launch site
AFETR
Launch vehicle
Mass (kg)
RCS (m²)

Purposes: comms

External: N2YO · Heavens-Above · Gunter

§ Orbital elements

Epoch: 2026-09-20T00:26:00.580992Z

Period
94.01 min
Inclination
53.1642°
Eccentricity
0.0001863
Mean motion
15.31701888 rev/d
Perigee alt
469.5 km
Apogee alt
472.0 km
Semi-major
6,848.9 km
B*
4.6513e-5
RAAN
267.0565°
Arg perigee
92.5205°
Mean anomaly
267.6010°
Rev number
29,795

§ Raw data

STARLINK-25361 48310U 21036AL  26263.01806228  .00001078  00000+0  46513-4 0  99922 48310  53.1642 267.0565 0001863  92.5205 267.6010 15.31701888297957

JSON: /api/v1/satellites/48310 · /tle

For live sub-satellite position, see the globe view (requires WebGL).

§ Visibility from observer

Set your observer location to see the next 7 days of passes ≥ 10°. The values pass through the URL so the page stays shareable.

No JS? Fill the form by hand. The geolocation button needs JavaScript.